TimeCST,TemperatureF,Dew PointF,Humidity,Sea Level PressureIn,VisibilityMPH,Wind Direction,Wind SpeedMPH,Gust SpeedMPH,PrecipitationIn,Events,Conditions,WindDirDegrees,DateUTC
12:54 AM,17.1,12.0,81,30.42,10.0,Calm,Calm,-,N/A,,Clear,0,2013-01-14 06:54:00
1:54 AM,17.1,12.0,81,30.45,10.0,WSW,3.5,-,N/A,,Clear,240,2013-01-14 07:54:00
2:54 AM,17.1,10.9,77,30.47,10.0,West,4.6,-,N/A,,Clear,280,2013-01-14 08:54:00
4:54 AM,17.1,10.0,74,30.45,10.0,WNW,3.5,-,N/A,,Clear,300,2013-01-14 10:54:00
5:54 AM,16.0,10.0,77,30.46,10.0,Calm,Calm,-,N/A,,Clear,0,2013-01-14 11:54:00
6:54 AM,16.0,10.0,77,30.46,10.0,Calm,Calm,-,N/A,,Clear,0,2013-01-14 12:54:00
7:54 AM,17.1,10.9,77,30.48,10.0,Calm,Calm,-,N/A,,Clear,0,2013-01-14 13:54:00
8:54 AM,19.9,12.0,71,30.52,10.0,North,4.6,-,N/A,,Scattered Clouds,360,2013-01-14 14:54:00
9:54 AM,21.9,10.9,63,30.53,10.0,North,5.8,-,N/A,,Overcast,10,2013-01-14 15:54:00
10:54 AM,21.9,8.1,55,30.53,10.0,North,6.9,-,N/A,,Mostly Cloudy,350,2013-01-14 16:54:00
11:54 AM,23.0,9.0,55,30.52,10.0,Calm,Calm,-,N/A,,Partly Cloudy,0,2013-01-14 17:54:00
12:54 PM,24.1,10.0,55,30.51,10.0,Calm,Calm,-,N/A,,Mostly Cloudy,0,2013-01-14 18:54:00
1:54 PM,25.0,12.0,58,30.49,10.0,Calm,Calm,-,N/A,,Mostly Cloudy,0,2013-01-14 19:54:00
2:54 PM,27.0,12.0,53,30.48,10.0,Calm,Calm,-,N/A,,Partly Cloudy,0,2013-01-14 20:54:00
3:54 PM,28.0,12.0,51,30.48,10.0,Calm,Calm,-,N/A,,Clear,0,2013-01-14 21:54:00
4:54 PM,25.0,12.0,58,30.48,10.0,North,4.6,-,N/A,,Clear,10,2013-01-14 22:54:00
5:54 PM,23.0,12.0,63,30.47,10.0,NNE,4.6,-,N/A,,Clear,30,2013-01-14 23:54:00
6:54 PM,19.9,12.9,74,30.46,10.0,Calm,Calm,-,N/A,,Clear,0,2013-01-15 00:54:00
7:54 PM,19.0,14.0,81,30.45,10.0,Calm,Calm,-,N/A,,Clear,0,2013-01-15 01:54:00
8:54 PM,18.0,14.0,84,30.45,10.0,Calm,Calm,-,N/A,,Clear,0,2013-01-15 02:54:00
9:54 PM,18.0,12.9,81,30.45,10.0,Calm,Calm,-,N/A,,Clear,0,2013-01-15 03:54:00
10:54 PM,16.0,12.0,84,30.46,10.0,Calm,Calm,-,N/A,,Clear,0,2013-01-15 04:54:00
11:54 PM,16.0,10.9,81,30.47,10.0,Calm,Calm,-,N/A,,Clear,0,2013-01-15 05:54:00